Theta_e
324 324 324 326 323 321 323 323 324 328 330 331 327 326 328 329 328 330 331 330 333 339 342 346 347 346 347 348 349 353 355 356 355 353 353 353 354 354 354 353 352 351 351 350 350 350 351 351 352 352 351 349 348 346 344 343 342 341 341 341 342 342 343
323 324 323 324 324 323 322 320 323 329 332 331 329 326 327 328 326 327 329 328 328 329 335 347 351 347 347 347 347 352 355 355 354 354 353 352 353 353 354 354 352 351 351 351 350 351 351 351 351 351 348 347 346 346 346 344 343 342 341 341 343 344 344
321 323 322 321 323 324 323 323 325 327 326 326 326 326 326 327 325 326 327 328 326 325 333 344 349 349 348 347 348 351 355 355 354 354 354 352 352 353 354 354 353 351 351 351 351 351 351 350 351 350 348 346 347 346 346 345 344 343 342 344 347 346 346
321 321 320 318 319 323 323 324 325 326 326 325 324 325 325 325 324 324 325 325 324 329 339 347 350 352 351 350 350 350 354 356 354 354 354 353 353 353 354 355 353 352 351 351 352 351 350 348 348 349 347 347 348 347 346 346 345 344 343 346 348 346 346
320 319 320 319 319 321 320 320 322 323 324 324 325 325 323 323 323 324 324 322 324 337 351 355 354 354 352 351 351 351 354 355 353 353 354 354 354 354 355 355 354 352 351 351 352 350 349 347 346 347 346 346 348 347 346 344 344 344 343 345 346 344 345
317 318 321 322 322 322 321 320 320 322 322 321 323 323 323 324 323 323 322 321 328 342 349 351 353 351 351 352 352 352 354 354 353 353 353 353 354 353 354 354 354 353 351 350 351 350 349 348 347 345 344 344 345 345 344 343 343 343 343 343 342 342 343
320 322 323 323 324 324 323 322 322 324 324 320 319 320 322 324 323 324 323 321 332 345 345 347 352 351 351 352 352 353 353 352 352 352 352 353 351 349 350 350 350 349 349 348 348 349 348 348 347 343 342 343 343 343 343 342 342 342 342 342 342 342 343
323 323 323 324 325 324 322 322 323 324 323 322 322 321 323 323 321 324 324 321 332 346 347 348 352 352 353 352 351 353 352 352 352 351 352 353 351 348 348 348 347 346 347 347 346 346 346 347 346 343 342 342 341 341 342 342 342 343 343 343 342 342 343
320 320 321 321 322 322 322 322 323 325 325 324 324 323 325 324 321 324 322 319 332 346 347 348 350 350 353 352 352 353 352 353 353 351 351 352 352 350 348 347 347 347 347 347 346 345 344 344 343 342 344 344 342 342 341 341 342 342 343 344 343 343 344
317 318 319 319 320 321 323 324 325 325 325 324 324 323 322 321 321 324 321 321 336 347 345 345 347 349 351 352 352 352 353 353 353 353 352 351 352 351 348 348 348 348 348 347 347 347 346 344 343 343 344 344 344 343 342 342 342 342 343 344 343 342 342
321 322 324 324 324 322 321 323 326 325 325 327 326 322 319 320 323 324 324 326 337 345 347 346 347 348 350 351 351 351 351 351 352 353 353 352 352 352 350 350 350 349 348 348 348 347 347 347 346 346 345 344 345 345 343 343 343 343 344 344 344 343 342
324 327 328 328 327 325 323 325 326 326 327 328 326 321 323 326 322 321 328 330 331 340 349 347 346 349 349 349 349 349 349 349 350 351 351 351 352 352 351 351 351 350 349 348 348 347 347 347 347 347 346 345 345 345 345 346 345 345 345 345 344 344 342
325 327 328 329 330 329 329 329 329 329 329 329 326 326 333 337 328 325 337 340 334 341 348 346 346 349 348 348 348 347 347 348 348 349 350 350 351 350 350 350 350 350 348 348 349 348 348 348 348 348 347 347 346 347 347 347 347 347 346 345 344 343 342
325 327 328 330 330 329 330 332 332 333 333 333 333 335 338 341 338 337 344 348 345 346 346 345 346 348 347 347 346 345 346 347 348 349 349 349 349 349 349 349 348 348 348 348 349 349 350 350 350 349 349 348 348 348 347 347 347 347 347 346 345 343 343
322 325 327 328 329 328 328 329 332 334 335 336 337 339 340 341 343 344 346 348 347 345 345 346 346 347 347 346 345 345 346 346 348 348 348 348 347 346 347 348 347 346 346 346 347 348 349 349 349 349 349 350 349 348 348 348 348 348 348 348 347 345 344
320 322 324 325 327 327 325 325 328 332 335 336 337 339 339 340 343 344 342 342 343 343 345 345 345 346 346 345 345 345 345 346 347 347 347 347 345 345 345 346 346 345 345 345 346 346 346 347 348 348 349 349 349 349 349 349 349 349 349 349 348 347 347
320 321 323 323 323 324 323 323 325 329 335 338 337 337 338 339 341 342 340 339 342 344 344 343 344 344 345 346 346 345 345 346 346 346 346 345 345 345 345 345 345 344 344 344 344 344 344 346 347 348 348 348 349 349 349 349 350 350 349 350 350 349 349
320 323 324 322 322 322 322 323 323 326 332 336 336 335 337 338 339 340 340 340 342 342 342 342 343 344 345 346 345 345 345 345 345 345 346 345 345 344 344 344 343 342 343 343 343 343 344 344 345 346 347 347 348 348 348 348 349 349 349 349 350 350 350
322 324 322 320 322 323 323 323 324 324 327 333 334 334 336 337 336 337 339 339 340 342 342 342 342 343 343 342 342 344 344 343 344 344 344 344 344 342 342 342 342 342 343 344 344 344 344 344 345 346 346 346 347 347 347 347 347 347 348 349 349 350 350
323 321 320 321 324 325 324 324 325 324 325 330 332 331 332 335 335 336 339 340 341 342 342 341 340 339 337 336 337 340 341 341 342 342 342 342 341 340 340 341 341 341 341 342 344 343 343 343 344 344 345 345 345 345 346 346 347 346 347 348 348 348 348
323 320 321 323 325 326 326 326 325 325 325 327 329 329 330 333 335 337 338 339 341 341 341 340 338 337 336 334 333 334 336 337 338 338 339 339 339 338 339 340 340 339 338 339 341 340 340 341 341 342 342 342 342 343 343 344 345 344 344 345 345 345 345
323 322 322 323 323 324 327 327 324 325 324 324 326 328 328 330 335 337 338 339 340 340 340 339 337 338 341 339 334 332 332 333 333 334 334 335 336 336 336 337 337 336 336 338 339 338 339 338 338 339 339 339 340 340 340 341 341 340 340 340 340 341 340
323 322 320 321 322 325 327 326 324 324 324 322 325 327 326 327 332 336 337 338 340 340 339 339 340 341 343 340 333 329 330 330 330 331 331 331 332 333 334 335 334 333 335 336 336 335 334 333 334 334 334 333 334 335 335 335 336 338 338 337 337 338 337
321 322 320 321 324 326 325 324 324 324 323 322 323 324 323 325 329 333 336 338 339 339 339 339 339 340 341 338 331 328 330 330 329 330 329 329 330 332 333 333 332 331 331 331 329 327 325 324 326 326 323 321 322 324 324 323 325 328 330 330 330 330 329
319 320 320 321 324 325 323 323 325 325 323 323 323 323 323 324 327 331 334 336 337 338 339 339 338 337 337 334 331 331 331 329 328 328 328 327 329 331 332 331 329 329 328 327 326 323 321 322 323 322 319 317 316 317 317 315 315 316 318 320 320 319 317
319 319 319 321 323 324 323 325 327 327 326 324 324 325 325 325 326 329 332 334 336 337 337 337 336 335 333 331 331 331 329 327 327 327 327 326 326 328 331 330 328 328 327 325 324 323 323 324 322 320 319 317 315 315 314 313 312 311 311 313 314 314 313
319 317 317 320 322 324 325 327 328 328 327 325 325 326 327 327 327 329 330 332 334 335 336 335 334 333 331 330 330 330 329 328 327 327 327 326 324 326 329 330 328 328 327 326 325 325 324 323 321 319 318 317 315 314 312 312 311 310 309 308 310 311 311
319 317 318 321 322 323 325 326 326 325 324 324 325 326 326 326 327 329 331 331 331 333 335 334 333 333 331 329 329 329 328 328 327 326 327 327 326 326 327 327 326 326 326 325 325 324 323 322 321 320 317 315 313 312 311 311 311 309 308 307 307 307 308
321 321 322 323 323 323 324 324 325 325 323 322 323 325 325 325 327 328 331 332 331 331 333 332 332 333 332 330 329 328 327 327 327 327 327 327 327 327 326 325 325 324 324 323 322 322 321 319 318 316 313 312 311 310 310 310 310 309 307 307 306 306 306
322 323 324 324 325 324 324 323 323 323 323 322 323 324 325 325 327 328 330 332 331 331 331 331 332 333 332 330 329 328 326 326 326 326 326 326 326 325 324 323 322 322 322 321 318 317 316 314 313 311 310 310 310 309 308 308 308 307 307 307 307 307 306
321 323 325 326 326 325 325 324 323 322 322 321 322 323 322 323 325 328 329 331 331 330 330 330 331 331 330 330 329 327 326 325 325 324 324 324 324 323 322 321 321 321 320 318 315 314 313 312 311 310 309 309 309 309 310 310 308 307 307 307 307 307 307
322 324 325 325 325 324 324 324 324 323 323 322 321 321 321 321 323 325 326 329 331 331 330 330 330 329 328 328 328 327 326 325 324 324 322 321 322 322 322 321 321 320 317 315 314 314 312 312 311 310 309 308 307 308 310 310 309 307 306 308 309 309 311
323 323 323 323 324 324 324 324 323 323 323 323 323 322 321 321 323 324 325 326 328 329 329 329 328 327 327 327 327 327 326 325 324 323 323 321 321 321 321 321 319 317 316 315 315 313 312 312 311 309 308 307 307 308 308 307 307 306 306 307 308 309 312
322 323 323 323 322 323 324 324 323 322 322 323 324 323 322 322 321 322 323 324 325 327 328 328 328 327 326 326 326 326 326 325 324 323 322 322 321 320 320 320 318 316 315 316 315 315 314 312 310 308 307 307 308 310 309 307 306 307 306 307 307 309 311
323 324 324 322 321 322 324 323 323 323 322 323 323 323 322 322 321 321 322 323 323 325 325 326 327 328 327 326 325 325 325 324 323 322 322 321 321 320 319 319 318 316 316 316 316 317 316 313 309 308 308 308 308 309 308 307 307 307 305 306 309 312 312
322 322 322 321 321 322 323 323 323 323 322 322 323 323 323 322 321 321 321 321 321 322 323 323 324 325 327 326 325 325 325 325 323 322 321 321 321 320 319 318 318 316 316 317 318 318 317 313 309 309 309 309 308 308 308 307 307 307 306 306 308 311 312
322 321 322 321 321 323 323 322 323 322 320 321 322 322 322 321 321 322 322 320 319 320 321 322 322 321 323 325 325 324 325 325 323 321 321 321 321 320 319 318 317 316 317 318 318 318 317 314 311 309 310 309 309 309 309 308 308 307 307 306 307 308 308
Wind_Speed
12 16 15 12 9 6 7 9 10 9 8 8 7 7 7 8 7 4 5 6 3 4 6 6 6 6 7 9 12 14 16 20 24 27 28 26 22 21 21 21 22 24 23 22 22 21 20 20 19 19 20 21 22 22 21 20 19 18 17 18 18 17 16
13 16 16 16 15 10 5 8 10 8 5 6 6 6 7 8 8 4 6 8 6 5 4 3 5 7 8 9 12 14 15 19 23 24 28 30 25 21 20 19 21 23 22 22 21 20 20 19 18 19 20 21 22 22 21 21 20 19 18 18 17 17 16
13 14 13 13 17 16 9 5 8 10 7 7 7 6 7 8 8 6 7 8 8 6 3 5 6 7 8 10 11 13 15 18 22 23 24 26 24 21 20 20 20 21 21 21 21 20 20 20 19 19 21 21 23 23 22 22 21 20 18 17 17 18 17
11 11 10 10 12 15 11 8 7 9 7 8 8 7 7 7 7 7 8 8 7 4 2 5 7 7 9 11 11 11 14 17 21 23 23 23 22 21 20 20 21 21 21 20 19 20 22 22 20 20 21 22 22 23 23 22 21 21 19 18 18 18 17
9 9 10 11 11 12 11 8 8 9 7 7 7 8 8 7 7 6 7 8 4 2 4 4 7 7 7 10 9 9 12 16 18 21 23 23 23 22 20 18 18 19 20 18 18 21 23 22 21 21 23 23 22 22 23 22 21 21 20 19 19 18 17
9 10 12 12 10 12 13 10 9 10 9 8 7 8 8 7 7 6 6 7 2 4 3 2 6 6 6 9 10 8 11 14 16 18 21 23 24 23 22 20 17 16 18 17 15 18 21 20 21 24 24 23 22 23 23 21 21 21 21 20 20 18 17
4 5 9 7 6 9 14 11 10 10 9 9 8 8 8 7 8 7 6 7 1 5 1 1 4 4 5 9 10 9 10 13 15 17 19 22 24 24 23 22 18 17 19 19 16 15 15 16 19 22 22 21 21 22 22 21 20 20 21 21 20 19 18
1 4 6 6 5 8 12 12 11 10 10 11 10 9 7 7 9 8 6 8 3 5 2 2 4 4 4 7 10 10 10 11 13 16 18 19 22 24 23 21 19 19 21 22 21 17 14 15 17 18 18 19 19 20 20 20 19 20 21 21 21 20 19
7 6 7 9 9 9 9 9 9 7 8 11 10 8 5 6 10 11 9 8 3 5 4 5 7 6 5 7 8 8 9 10 12 15 17 17 18 21 22 21 21 23 23 23 24 23 20 18 17 14 13 14 16 18 19 18 18 19 20 21 21 21 20
8 7 6 6 8 10 8 5 5 6 9 10 8 6 5 6 8 10 10 6 4 7 6 7 8 8 7 9 9 8 8 9 11 13 16 16 15 16 18 18 19 21 22 21 22 22 22 22 20 18 16 15 16 17 17 17 17 18 18 19 20 21 21
1 2 2 1 3 8 8 6 6 8 9 10 8 8 8 7 7 8 10 8 3 7 10 9 10 10 8 9 11 10 8 9 10 10 12 14 14 15 16 15 15 16 17 19 19 20 21 22 21 22 23 22 20 18 18 19 20 20 19 18 19 21 21
6 5 5 3 3 6 6 7 7 7 8 9 11 10 6 5 7 7 8 10 9 7 11 11 10 10 8 8 10 11 10 10 11 10 10 12 13 14 14 13 13 14 15 17 19 20 21 21 21 22 23 23 23 22 22 22 22 23 22 20 21 22 22
8 7 6 6 7 7 6 6 5 5 7 8 11 8 2 2 5 3 1 6 6 5 11 11 9 10 9 8 9 10 10 10 11 11 12 12 13 13 14 14 13 13 15 17 17 17 18 19 20 21 22 23 23 23 24 24 23 22 23 23 24 25 26
9 7 6 6 8 10 9 9 8 5 5 4 3 1 5 3 1 2 3 5 6 6 8 10 10 10 11 10 9 8 9 9 10 12 12 12 13 13 14 15 14 11 13 15 14 14 15 15 15 17 19 20 21 21 21 21 20 19 20 20 22 24 26
8 7 6 6 8 11 13 12 11 8 6 6 6 6 7 4 3 4 4 8 9 6 8 11 11 11 11 11 9 8 8 9 10 11 11 12 12 11 11 13 11 9 8 9 9 10 10 9 12 16 17 17 18 19 20 20 19 19 19 19 21 23 24
6 6 3 5 7 9 13 14 13 11 8 7 8 9 8 7 5 2 4 5 5 5 9 11 10 10 10 10 10 10 9 9 9 10 11 12 12 10 9 9 10 9 7 6 6 5 6 7 10 12 12 12 14 17 19 19 19 19 20 20 21 21 22
5 4 3 1 6 7 7 10 10 9 8 8 9 9 10 10 8 4 1 2 4 8 9 9 9 10 10 10 11 11 10 9 10 9 10 13 13 12 11 10 9 9 8 7 6 6 6 8 9 9 9 10 10 13 15 16 17 18 19 20 20 19 19
3 1 6 6 5 6 4 5 6 7 7 9 10 11 12 10 8 4 3 3 5 8 8 8 10 10 10 10 10 11 11 10 10 10 10 11 13 12 11 9 7 7 7 7 7 7 6 5 7 8 8 8 9 11 13 14 16 17 17 18 18 19 19
1 3 5 4 4 5 5 4 6 6 4 6 10 13 14 11 9 8 6 5 6 7 7 10 11 9 10 11 9 9 10 9 10 10 9 10 11 11 10 9 8 7 7 7 6 5 5 6 7 7 7 8 9 11 12 13 14 15 16 18 18 18 18
1 1 2 2 3 4 4 4 7 6 2 2 5 10 14 12 9 9 8 6 6 6 11 14 12 11 13 12 10 9 9 8 8 8 8 9 11 10 10 9 9 8 7 6 5 4 5 6 6 7 7 9 12 13 14 13 13 14 15 16 16 17 16
2 3 1 1 2 4 4 3 6 6 4 5 4 5 10 11 9 8 7 6 6 6 11 13 12 13 13 11 9 9 8 8 8 8 8 9 10 10 10 9 9 9 8 6 4 5 7 8 7 6 5 7 10 13 14 13 14 14 14 13 13 13 13
2 4 4 2 4 4 3 4 5 5 4 6 6 1 6 9 9 7 5 4 5 6 8 11 11 11 9 6 6 8 9 9 9 10 10 10 10 11 10 10 10 9 8 6 4 4 8 11 11 10 8 6 8 11 12 12 12 12 14 14 13 12 12
4 5 6 5 4 1 4 5 6 7 4 3 5 2 3 8 9 5 4 3 4 5 7 10 10 7 5 5 7 9 11 12 11 12 12 11 11 11 10 10 11 11 10 9 8 9 11 13 13 11 9 8 8 10 11 10 9 9 10 12 11 10 10
5 6 5 3 2 3 6 6 8 8 4 1 5 4 2 7 9 5 3 3 3 3 5 8 6 2 0 5 10 11 11 12 12 12 13 13 11 11 10 10 12 13 12 12 12 13 14 14 12 11 9 8 8 10 11 10 9 8 9 10 10 9 10
5 6 5 3 3 4 5 7 8 7 2 3 3 0 2 6 8 5 2 2 3 3 4 5 2 3 4 9 13 13 12 11 11 10 12 12 13 12 12 13 13 12 12 12 12 13 14 13 11 9 7 7 8 10 11 10 10 10 10 11 11 11 11
2 4 4 3 4 4 7 9 5 4 3 2 2 3 2 5 6 4 3 1 2 3 5 4 3 6 10 12 14 13 12 11 11 10 11 12 12 13 13 14 14 11 10 10 11 11 12 11 8 6 5 5 7 8 7 8 9 9 9 10 10 9 8
1 4 3 2 3 5 11 10 3 3 4 3 3 3 3 4 4 2 2 2 1 3 5 6 6 10 13 13 13 12 10 9 9 10 11 11 11 12 13 14 14 12 11 10 10 10 9 7 6 5 4 4 6 6 7 8 9 8 8 8 8 6 4
2 2 3 2 3 6 11 9 5 6 7 5 4 4 6 7 6 2 1 1 0 1 4 6 8 12 13 13 14 14 11 10 9 10 10 11 11 12 12 13 13 12 10 10 9 8 7 5 4 3 3 4 5 5 6 8 8 8 8 7 7 6 4
3 3 5 5 5 5 7 8 8 7 6 6 6 6 7 8 8 6 4 2 1 1 2 5 8 9 10 11 14 15 14 13 11 10 11 11 12 13 13 13 13 12 10 8 6 4 3 2 1 1 3 4 4 4 5 7 7 7 7 7 6 5 4
4 5 5 6 6 6 6 6 6 6 6 6 7 7 8 9 9 7 5 3 2 0 1 3 5 7 9 12 13 14 14 15 14 13 13 13 13 14 13 12 11 11 9 7 4 3 2 1 0 1 3 4 3 4 5 5 6 6 6 5 5 4 4
3 3 6 6 6 6 5 4 5 6 6 6 6 7 8 8 8 7 6 4 2 0 1 2 3 4 8 11 13 14 16 17 16 16 15 15 15 14 13 13 11 11 9 6 3 1 1 1 1 2 3 3 4 4 5 5 5 5 5 4 4 3 3
2 4 7 6 5 5 5 4 4 5 5 5 6 7 7 8 8 7 7 5 3 1 0 2 3 5 8 10 13 17 19 17 15 16 17 17 16 15 15 15 13 11 9 5 2 1 1 1 2 2 2 2 3 3 4 3 3 4 4 3 3 3 4
2 4 6 6 4 6 6 5 5 6 5 5 6 6 6 7 7 7 6 5 3 2 1 1 3 5 8 9 13 17 18 15 14 17 18 19 18 17 16 15 13 10 8 5 2 0 1 2 2 2 2 3 3 3 2 2 3 4 4 3 3 3 2
2 3 6 6 2 2 6 7 6 6 5 5 5 6 6 6 7 7 6 5 3 2 1 3 4 5 7 9 12 16 17 15 16 17 18 19 20 19 18 16 14 12 10 7 3 1 1 2 3 3 3 3 3 2 3 4 5 5 5 4 4 3 1
2 5 6 5 2 1 5 7 5 5 5 4 4 5 5 5 5 5 5 5 4 3 1 2 4 5 6 8 11 13 15 16 18 19 20 20 21 21 20 19 17 15 12 9 6 3 1 2 3 2 2 2 2 2 4 6 6 6 5 4 3 3 2
2 3 4 4 2 1 5 6 5 4 3 2 4 4 4 4 4 4 4 4 4 4 3 0 3 5 6 7 9 11 12 15 18 21 22 20 19 21 22 21 19 17 13 10 8 7 4 3 2 1 1 3 3 3 4 5 4 5 5 3 2 1 2
1 3 4 4 3 3 5 5 4 3 1 0 1 2 2 2 3 4 4 3 4 4 3 2 1 2 4 6 8 9 10 11 15 20 22 20 19 21 23 22 20 17 12 10 10 9 6 4 3 3 4 4 3 3 3 3 3 3 3 2 1 1 1
Wind_Direction
191 197 207 212 216 204 186 204 215 214 212 218 226 228 233 250 254 207 200 235 218 161 172 166 179 186 170 182 185 171 170 174 174 178 186 190 192 191 191 192 192 193 197 201 202 203 205 207 207 207 213 220 224 223 218 213 212 212 210 209 209 210 212
197 205 207 202 219 229 191 198 208 201 225 250 242 229 217 227 240 215 205 232 228 205 189 160 192 191 166 175 181 168 166 175 177 179 185 188 189 191 193 194 193 194 196 201 203 205 208 207 207 215 226 231 230 227 223 220 217 216 215 214 214 215 216
187 197 210 201 209 221 228 236 213 197 209 221 216 230 227 219 230 223 209 223 233 231 194 158 185 177 156 165 172 166 166 175 181 179 181 185 186 189 194 195 194 193 195 201 204 206 212 215 213 221 232 234 234 233 229 226 224 222 220 216 216 219 218
173 181 207 205 194 205 228 255 225 202 217 224 212 221 232 233 236 228 215 216 222 232 120 139 164 156 151 161 165 169 170 172 178 178 176 177 179 185 192 194 194 194 197 203 206 210 220 227 225 226 233 235 234 235 233 230 228 226 223 217 217 221 219
172 184 201 208 194 188 204 225 212 200 217 233 225 222 228 239 241 231 230 227 201 65 43 104 135 138 148 159 162 169 171 170 173 174 174 174 175 180 184 188 191 194 199 201 204 213 222 229 229 229 234 235 232 234 235 232 229 228 225 220 220 223 220
194 199 194 209 215 196 194 206 212 206 210 219 222 222 219 227 238 237 247 245 166 67 21 87 119 136 148 157 162 166 169 170 170 171 173 175 178 182 182 182 182 183 190 192 197 212 219 222 228 232 236 236 235 236 237 235 232 229 226 224 223 223 222
202 162 173 213 258 214 199 206 215 209 208 214 219 221 212 214 230 233 249 252 145 83 50 81 104 136 150 156 163 164 164 168 172 172 171 175 184 193 195 193 193 196 200 197 194 204 211 214 225 234 236 236 238 240 242 241 238 233 228 226 226 224 223
194 98 152 207 247 221 206 210 217 217 216 215 223 236 225 216 223 219 233 242 182 102 119 136 114 126 147 158 160 158 157 161 171 174 171 173 183 194 199 198 201 210 211 207 205 211 214 212 220 230 231 232 236 239 241 241 238 237 235 231 230 228 227
189 172 177 191 202 213 218 212 209 229 238 224 228 243 235 228 225 214 226 241 182 112 136 149 140 145 149 148 147 146 150 156 167 171 170 174 181 190 199 202 204 209 212 216 220 225 227 221 218 220 223 228 234 236 239 241 240 241 240 237 235 234 232
199 186 179 185 191 200 211 207 197 224 239 231 231 235 223 227 225 212 225 241 127 125 157 154 151 163 154 138 134 130 137 153 165 168 167 172 176 182 194 203 205 205 210 217 220 221 224 224 223 225 229 234 236 237 241 245 244 242 241 237 235 234 233
183 136 79 22 187 185 187 187 192 208 222 230 235 232 227 226 222 220 228 233 180 151 164 163 162 168 158 143 139 135 136 147 156 160 164 172 176 177 183 192 197 200 208 216 218 220 224 228 232 235 237 237 237 238 240 242 243 243 241 237 233 230 229
78 80 73 74 142 166 173 176 184 193 200 217 228 233 252 248 231 229 217 220 225 178 156 163 167 160 154 147 142 141 142 143 146 143 141 149 156 160 165 170 180 195 211 221 225 227 229 231 232 233 234 234 234 236 237 239 244 246 242 238 236 232 229
91 90 91 95 115 122 119 126 141 170 181 205 224 231 339 333 244 264 200 204 220 157 143 153 156 152 153 148 137 139 141 143 147 144 136 137 139 139 149 163 176 194 210 218 220 221 224 226 227 229 233 235 235 238 238 239 242 243 240 236 235 234 233
100 96 108 109 109 106 93 82 80 105 131 137 195 161 32 18 275 10 64 117 89 90 126 134 144 155 154 142 131 133 141 143 146 146 147 149 144 142 158 178 186 191 202 211 213 214 217 220 223 226 230 231 230 231 234 233 234 237 238 236 235 236 236
115 106 123 127 116 102 85 67 57 66 86 80 65 45 23 13 38 56 112 113 87 82 106 117 140 151 141 138 137 132 136 142 142 144 146 141 134 138 165 184 181 172 185 200 203 207 210 214 223 227 227 226 224 224 224 223 224 229 233 234 236 239 240
132 117 122 138 145 119 84 57 39 40 54 69 64 47 33 22 5 357 156 128 96 105 111 117 136 141 136 141 138 129 129 137 141 141 137 129 125 134 153 157 148 142 147 152 152 169 182 192 211 224 226 222 220 223 225 226 227 230 232 233 236 238 237
154 126 17 321 197 167 87 42 20 23 44 76 79 54 40 27 356 325 183 67 84 120 128 133 139 143 149 146 138 135 134 134 135 133 131 131 132 137 140 136 129 126 126 124 127 147 178 197 207 214 219 217 213 215 221 223 224 226 227 228 228 228 227
190 85 339 301 212 166 90 33 8 14 38 65 71 55 41 31 19 29 56 57 111 138 149 148 146 146 143 136 135 137 134 131 132 129 129 131 128 127 130 129 121 117 120 125 130 140 154 169 182 189 198 206 207 206 207 208 211 214 215 215 215 216 215
268 7 319 260 165 110 93 60 24 12 33 67 74 63 47 33 34 51 64 82 117 144 143 134 138 136 122 120 126 128 127 128 130 128 129 128 123 123 129 128 120 113 119 132 139 141 143 144 152 168 177 182 189 191 192 196 202 207 210 209 211 215 216
224 351 293 231 125 108 130 82 23 7 10 47 70 67 49 30 33 50 58 72 95 126 126 124 132 131 114 104 102 109 114 118 121 122 121 118 115 119 127 128 122 114 115 129 140 128 122 131 143 158 172 179 181 177 177 180 184 190 199 201 201 204 209
201 177 123 35 180 173 151 84 19 6 4 342 337 58 53 31 30 48 58 78 100 121 124 127 141 139 118 93 83 95 99 100 108 112 112 111 108 111 122 125 119 117 117 119 120 103 97 100 107 118 142 167 169 162 158 160 161 162 165 168 171 174 176
207 176 142 156 215 194 111 68 28 4 347 330 317 25 66 31 21 35 46 71 112 134 138 142 151 148 132 104 92 100 98 97 102 105 107 113 113 115 125 126 119 121 125 118 105 99 99 97 94 90 90 108 130 130 128 134 140 140 138 137 137 141 141
195 199 178 182 207 165 48 35 17 6 358 321 288 232 83 25 9 22 36 57 117 143 153 157 163 168 161 129 113 112 109 107 107 104 102 107 114 117 120 123 123 128 134 133 127 121 115 108 105 103 95 94 104 106 104 107 113 118 121 117 118 126 126
190 209 195 162 142 70 36 3 353 0 10 250 249 220 90 12 353 7 34 51 91 125 161 164 163 188 212 122 119 117 117 122 124 119 112 106 108 115 117 120 125 128 128 128 124 121 117 112 112 113 104 93 94 99 99 94 91 95 100 104 109 111 102
184 210 198 135 99 63 13 345 348 355 330 236 245 219 30 346 337 348 12 51 80 103 155 159 123 59 102 138 142 138 138 144 144 140 132 121 115 123 129 125 122 120 122 125 125 122 117 110 106 102 93 83 84 95 104 101 91 84 85 91 93 89 87
166 203 196 148 117 61 351 330 332 342 299 244 66 52 7 337 336 336 332 15 92 122 138 133 96 101 123 141 149 150 155 157 146 141 148 143 133 136 139 132 125 123 126 130 127 119 112 110 106 94 75 68 73 84 101 102 96 92 89 89 87 83 87
196 185 178 165 132 50 354 330 320 7 10 46 52 38 41 26 7 328 311 339 49 125 133 129 119 125 138 153 156 154 156 153 140 137 144 146 141 144 147 143 135 131 130 129 122 116 115 117 110 92 65 62 74 86 97 97 96 98 96 94 95 97 103
285 193 126 86 88 39 9 7 49 52 45 54 27 10 36 36 25 21 32 16 1 93 122 133 133 137 151 168 170 167 164 156 149 146 147 148 146 145 150 150 147 148 153 150 142 137 136 127 108 80 40 41 61 79 92 93 93 94 91 89 92 96 103
18 41 69 75 84 66 40 47 65 58 47 45 27 18 29 29 22 20 24 40 82 95 119 134 141 149 164 174 175 178 178 171 165 161 158 158 151 144 148 154 156 163 175 178 177 181 181 163 120 48 12 23 42 64 80 86 87 87 87 89 93 95 96
91 73 81 94 97 91 79 74 74 64 52 46 35 28 30 28 26 22 20 34 63 90 162 151 154 165 175 177 177 182 186 183 178 173 167 165 163 163 168 172 165 162 170 181 192 206 211 227 327 15 22 27 36 51 66 73 76 78 80 81 86 93 97
159 123 108 111 107 103 105 109 100 81 63 58 51 42 38 33 31 39 50 57 64 68 212 206 199 185 179 177 178 186 194 193 188 184 181 181 183 185 187 186 175 166 171 181 190 194 171 135 64 39 36 36 36 43 53 55 54 57 60 58 50 44 45
147 106 110 116 120 123 124 119 113 105 83 71 66 55 48 41 36 47 61 67 70 59 284 222 216 204 192 187 187 192 198 200 195 192 195 196 195 192 191 189 184 181 185 188 175 142 103 79 54 34 44 56 55 60 65 50 25 21 30 41 41 36 36
159 127 139 148 153 153 147 124 103 103 94 81 75 65 57 52 45 45 51 61 78 78 67 189 196 201 200 200 200 198 200 208 209 204 204 205 204 203 200 195 188 186 190 193 182 120 33 24 0 358 44 56 48 49 45 15 359 357 0 9 23 48 72
216 123 140 157 200 173 135 124 108 97 89 81 78 70 61 54 47 42 38 41 58 78 118 167 187 201 206 212 212 206 206 218 224 219 215 212 210 211 209 204 201 201 202 201 199 190 18 348 327 342 23 37 36 28 353 343 342 339 344 357 3 14 64
40 78 115 152 247 339 110 121 116 100 88 73 69 67 57 48 41 35 32 30 31 38 90 178 193 203 212 220 220 216 217 225 227 227 226 221 214 213 213 212 212 214 213 213 217 225 270 297 302 332 2 350 338 325 323 331 335 333 339 0 19 14 341
45 104 124 153 201 151 125 129 119 109 104 72 64 64 56 49 39 27 26 23 18 19 24 66 205 211 217 220 220 220 224 229 232 233 229 220 212 213 216 217 217 218 219 228 237 237 235 248 270 278 273 291 304 311 318 324 328 332 340 357 35 43 324
149 148 143 152 161 136 134 138 133 133 157 47 55 44 30 41 42 35 29 8 355 3 10 8 334 227 218 215 219 223 225 230 238 238 228 215 209 215 221 223 222 223 228 240 243 239 238 247 245 223 225 249 268 275 290 307 313 324 344 4 20 16 324